MST,Max TemperatureF,Mean TemperatureF,Min TemperatureF,Max Dew PointF,MeanDew PointF,Min DewpointF,Max Humidity, Mean Humidity, Min Humidity, Max Sea Level PressureIn, Mean Sea Level PressureIn, Min Sea Level PressureIn, Max VisibilityMiles, Mean VisibilityMiles, Min VisibilityMiles, Max Wind SpeedMPH, Mean Wind SpeedMPH, Max Gust SpeedMPH,PrecipitationIn, CloudCover, Events, WindDirDegrees
2012-11-1,53,47,41,27,23,18,53,41,24,30.20,30.08,30.03,10.0,10.0,10.0,26,14,36,0.00,2,,164
2012-11-2,44,40,35,27,21,12,65,48,29,30.26,30.18,30.08,10.0,10.0,10.0,38,15,44,0.00,0,,343
2012-11-3,44,37,32,27,21,12,80,51,27,30.28,30.25,30.23,10.0,10.0,10.0,14,8,18,0.00,0,,146
2012-11-4,46,42,39,30,22,12,65,44,27,30.45,30.36,30.26,10.0,10.0,10.0,18,9,16,0.00,2,,320
2012-11-5,55,46,37,30,26,19,75,47,26,30.43,30.35,30.29,10.0,10.0,10.0,21,8,22,0.00,0,,184
2012-11-6,51,46,41,28,23,12,57,40,22,30.40,30.35,30.25,10.0,10.0,10.0,20,11,,0.00,0,,156
2012-11-7,55,48,41,25,20,14,53,31,20,30.24,30.11,30.04,10.0,10.0,10.0,28,14,36,0.00,0,,197
2012-11-8,50,39,28,28,25,19,93,59,30,30.05,29.90,29.74,10.0,10.0,10.0,33,16,39,0.00,0,,109
2012-11-9,41,32,23,28,22,21,93,67,45,29.73,29.66,29.60,10.0,8.7,0.2,32,20,36,0.00,5,Fog-Snow,39
2012-11-10,,,,,,,,,,29.84,29.71,29.59,,,,23,17,,0.00,8,,316
2012-11-11,15,12,10,12,9,7,93,87,68,30.13,29.96,29.84,,,,12,4,,0.00,6,,162
2012-11-12,28,20,12,18,10,1,85,69,54,30.25,30.20,30.13,,,,22,12,25,0.00,4,,140
2012-11-13,32,28,24,23,18,12,80,66,44,30.28,30.24,30.20,10.0,10.0,10.0,18,8,23,0.00,2,,154
2012-11-14,33,30,26,27,22,18,86,69,55,30.30,30.20,30.15,10.0,10.0,10.0,25,12,30,0.00,4,,202
2012-11-15,32,29,26,25,22,18,86,77,60,30.36,30.30,30.22,10.0,10.0,10.0,21,13,24,0.00,2,,137
2012-11-16,35,32,28,25,21,16,74,62,51,30.22,30.15,30.09,10.0,10.0,10.0,24,15,25,0.00,2,,155
2012-11-17,37,34,32,30,26,23,93,73,56,30.18,30.11,30.01,10.0,10.0,10.0,25,15,29,0.00,0,,154
2012-11-18,42,37,32,32,29,18,100,78,45,30.17,30.02,29.94,10.0,10.0,7.0,28,15,36,0.00,1,,158
2012-11-19,39,36,32,30,26,21,87,68,56,30.25,30.21,30.15,10.0,10.0,10.0,31,10,39,0.00,0,,166
2012-11-20,44,38,32,32,29,27,87,68,57,30.26,30.18,30.11,10.0,10.0,10.0,25,16,31,0.00,0,,140
2012-11-21,46,40,33,28,26,23,81,60,43,30.12,29.99,29.92,10.0,10.0,10.0,30,15,39,0.00,0,,155
2012-11-22,35,30,24,27,12,-2,100,55,25,30.49,30.28,30.00,10.0,9.3,0.2,36,16,45,0.00,2,Fog-Snow,320
2012-11-23,37,30,23,14,9,3,54,43,28,30.48,30.38,30.22,10.0,10.0,10.0,23,14,29,0.00,0,,153
2012-11-24,46,40,33,23,16,9,60,39,25,30.22,30.10,30.05,10.0,10.0,10.0,32,17,47,0.00,2,,204
2012-11-25,35,28,21,30,27,19,100,91,75,30.12,29.99,29.92,10.0,8.6,0.2,37,12,16,0.00,7,Fog-Snow,304
2012-11-26,26,22,19,21,19,18,100,87,69,30.28,30.21,30.14,,,,30,19,34,0.00,5,,162
2012-11-27,33,28,23,18,12,3,80,50,28,30.23,30.18,30.12,10.0,10.0,10.0,18,10,26,0.00,0,,169
2012-11-28,42,36,30,18,14,10,60,41,27,30.21,30.15,30.04,10.0,10.0,10.0,25,13,39,0.00,0,,163
2012-11-29,42,37,32,25,18,12,60,45,31,30.12,30.07,30.02,10.0,10.0,10.0,32,17,48,0.00,1,,194
2012-11-30,42,37,32,28,25,18,80,60,39,30.08,29.96,29.85,10.0,10.0,10.0,20,12,28,0.00,0,,145